Rockwall, TX

2:27 AM CST on December 09, 2019 (GMT -0600)
Rockwall

Weather History for KF46 - September, 2019

Change the Weather History Date:

Tuesday, September 17, 2019

  Actual Average (KDFW) Record (KDFW)
Temperature  
Mean Temperature 81 °F -  
Max Temperature 93 °F 86 °F 99 °F (1997)
Min Temperature 70 °F 66 °F 44 °F (1903)
Cooling Degree Days 16    
Growing Degree Days 31 (Base 50)    
Moisture  
Dew Point 69 °F    
Average Humidity 66    
Maximum Humidity 96    
Minimum Humidity 45    
Precipitation  
Precipitation 0.00 in - - ()
Sea Level Pressure  
Sea Level Pressure 29.97 in    
Wind  
Wind Speed 4 mph ()    
Max Wind Speed 13 mph    
Max Gust Speed 20 mph    
Visibility 10.0 miles    
Events      
Averages and records for this station are not official NWS values.
T = Trace of Precipitation, MM = Missing Value Source: Averaged Metar Reports

Daily Weather History Graph

Daily Weather History Graph

Search for Another Location

Airport or City:

Astronomy

Sep. 17, 2019 Rise Set
Actual Time 7:10 AM CDT 7:29 PM CDT
Civil Twilight 6:45 AM CDT 7:54 PM CDT
Nautical Twilight 6:16 AM CDT 8:23 PM CDT
Astronomical Twilight 5:47 AM CDT 8:52 PM CDT
Moon 9:43 PM CDT (9/17) 10:07 AM CDT (9/17)
Length of Visible Light 13h 08m
Length of Day
12h 18m
Waning Gibbous, 89% of the Moon is Illuminated
Sep 17
Waning Gibbous
Sep 21
Last Quarter
Sep 28
New
Oct 5
First Quarter
Oct 13
Full

Hourly Weather History & Observations

Time (CDT) Temp. Heat Index Dew Point Humidity Pressure Visibility Wind Dir Wind Speed Gust Speed Precip Events Conditions
12:15 AM 78.8 °F - 68.9 °F 72% 29.97 in 10.0 mi East 3.5 mph - N/A   Clear
12:35 AM 78.4 °F - 68.9 °F 72% 29.98 in 10.0 mi SE 5.8 mph - N/A   Clear
12:55 AM 79.7 °F - 66.9 °F 65% 29.98 in 10.0 mi SSE 4.6 mph - N/A   Clear
1:15 AM 78.4 °F - 67.1 °F 68% 29.98 in 10.0 mi South 4.6 mph - N/A   Clear
1:35 AM 77.4 °F - 67.1 °F 71% 29.98 in 10.0 mi South 4.6 mph - N/A   Clear
1:55 AM 76.6 °F - 67.1 °F 72% 29.98 in 10.0 mi SSE 3.5 mph - N/A   Clear
2:35 AM 76.3 °F - 67.3 °F 74% 29.98 in 10.0 mi SSE 3.5 mph - N/A   Clear
2:55 AM 76.1 °F - 67.5 °F 74% 29.99 in 10.0 mi South 3.5 mph - N/A   Clear
3:15 AM 75.6 °F - 67.5 °F 76% 29.98 in 10.0 mi SSE 4.6 mph - N/A   Clear
3:35 AM 75.4 °F - 68.0 °F 78% 29.98 in 10.0 mi South 3.5 mph - N/A   Clear
3:55 AM 75.2 °F - 68.0 °F 78% 29.98 in 10.0 mi South 3.5 mph - N/A   Clear
4:15 AM 75.0 °F - 68.0 °F 79% 29.99 in 10.0 mi South 3.5 mph - N/A   Clear
4:35 AM 74.8 °F - 68.0 °F 79% 29.99 in 10.0 mi South 4.6 mph - N/A   Clear
5:00 AM 74.5 °F - 68.2 °F 81% 29.99 in 10.0 mi Calm Calm - N/A   Clear
5:15 AM 74.1 °F - 68.2 °F 82% 30.00 in 10.0 mi Calm Calm - N/A   Clear
5:35 AM 72.7 °F - 68.0 °F 85% 30.00 in 10.0 mi East 3.5 mph - N/A   Clear
5:55 AM 71.8 °F - 69.6 °F 93% 30.00 in 10.0 mi Calm Calm - N/A   Clear
6:15 AM 71.4 °F - 68.9 °F 92% 30.00 in 10.0 mi Calm Calm - N/A   Clear
6:35 AM 71.2 °F - 69.8 °F 95% 30.00 in 10.0 mi Calm Calm - N/A   Clear
6:55 AM 71.1 °F - 69.6 °F 95% 30.00 in 10.0 mi Calm Calm - N/A   Clear
7:15 AM 70.7 °F - 69.4 °F 96% 30.00 in 10.0 mi Calm Calm - N/A   Clear
7:35 AM 71.6 °F - 69.8 °F 94% 30.01 in 10.0 mi Calm Calm - N/A   Clear
7:55 AM 72.9 °F - 70.2 °F 91% 30.01 in 10.0 mi Calm Calm - N/A   Clear
8:15 AM 74.5 °F - 70.5 °F 87% 30.02 in 10.0 mi East 3.5 mph - N/A   Clear
8:35 AM 76.5 °F - 69.4 °F 79% 30.02 in 10.0 mi Calm Calm - N/A   Clear
8:55 AM 78.1 °F - 70.0 °F 76% 30.02 in 10.0 mi East 4.6 mph - N/A   Clear
9:15 AM 79.2 °F - 70.3 °F 74% 30.02 in 10.0 mi ESE 3.5 mph - N/A   Clear
9:55 AM 82.4 °F 87.0 °F 71.4 °F 69% 30.02 in 10.0 mi ESE 4.6 mph - N/A   Clear
10:15 AM 83.3 °F 87.9 °F 71.1 °F 66% 30.02 in 10.0 mi ENE 6.9 mph - N/A   Clear
10:35 AM 84.7 °F 90.0 °F 71.2 °F 64% 30.03 in 10.0 mi East 8.1 mph - N/A   Clear
10:55 AM 85.3 °F 90.8 °F 71.2 °F 63% 30.03 in 10.0 mi ESE 8.1 mph - N/A   Clear
11:15 AM 86.7 °F 92.1 °F 70.7 °F 59% 30.02 in 10.0 mi East 9.2 mph - N/A   Clear
11:35 AM 87.4 °F 91.9 °F 69.6 °F 55% 30.02 in 10.0 mi East 12.7 mph 19.6 mph N/A   Clear
11:55 AM 88.3 °F 93.2 °F 70.0 °F 54% 30.01 in 10.0 mi ESE 8.1 mph 16.1 mph N/A   Clear
12:15 PM 88.7 °F 93.5 °F 69.8 °F 53% 30.01 in 10.0 mi East 6.9 mph 16.1 mph N/A   Scattered Clouds
12:35 PM 87.8 °F 92.2 °F 69.3 °F 54% 30.00 in 10.0 mi East 9.2 mph - N/A   Clear
12:55 PM 89.8 °F 96.0 °F 70.9 °F 54% 30.00 in 10.0 mi East 9.2 mph - N/A   Scattered Clouds
1:15 PM 90.3 °F 96.2 °F 70.7 °F 52% 29.99 in 10.0 mi SSE 5.8 mph - N/A   Scattered Clouds
1:40 PM 90.5 °F 96.5 °F 70.9 °F 52% 29.98 in 10.0 mi East 8.1 mph - N/A   Scattered Clouds
1:55 PM 88.7 °F 93.9 °F 70.0 °F 54% 29.97 in 10.0 mi East 8.1 mph - N/A   Scattered Clouds
2:15 PM 91.2 °F 97.5 °F 70.7 °F 51% 29.97 in 10.0 mi East 8.1 mph - N/A   Scattered Clouds
2:35 PM 90.5 °F 95.5 °F 69.8 °F 50% 29.96 in 10.0 mi ESE 6.9 mph - N/A   Scattered Clouds
2:55 PM 90.5 °F 95.5 °F 69.6 °F 50% 29.95 in 10.0 mi ESE 5.8 mph - N/A   Scattered Clouds
3:15 PM 91.8 °F 97.5 °F 70.2 °F 49% 29.94 in 10.0 mi ESE 10.4 mph - N/A   Scattered Clouds
3:35 PM 90.1 °F 94.9 °F 69.4 °F 50% 29.93 in 10.0 mi East 10.4 mph 17.3 mph N/A   Mostly Cloudy
3:55 PM 89.1 °F 93.3 °F 68.5 °F 51% 29.93 in 10.0 mi ESE 11.5 mph 16.1 mph N/A   Scattered Clouds
4:15 PM 92.1 °F 96.7 °F 68.4 °F 46% 29.92 in 10.0 mi ESE 12.7 mph 17.3 mph N/A   Mostly Cloudy
4:35 PM 91.9 °F 96.4 °F 68.2 °F 46% 29.92 in 10.0 mi East 12.7 mph - N/A   Mostly Cloudy
4:55 PM 91.9 °F 96.4 °F 68.4 °F 46% 29.91 in 10.0 mi ESE 5.8 mph 16.1 mph N/A   Clear
5:15 PM 91.9 °F 95.9 °F 67.8 °F 45% 29.91 in 10.0 mi East 6.9 mph - N/A   Scattered Clouds
5:35 PM 92.5 °F 96.9 °F 68.5 °F 45% 29.91 in 10.0 mi East 8.1 mph - N/A   Scattered Clouds
5:55 PM 89.1 °F 92.1 °F 67.3 °F 48% 29.91 in 10.0 mi ESE 5.8 mph - N/A   Scattered Clouds
6:15 PM 89.6 °F 92.6 °F 67.1 °F 47% 29.90 in 10.0 mi ESE 8.1 mph - N/A   Scattered Clouds
6:35 PM 90.0 °F 94.1 °F 68.2 °F 49% 29.91 in 10.0 mi South 11.5 mph - N/A   Mostly Cloudy
6:55 PM 88.2 °F 93.7 °F 70.7 °F 56% 29.91 in 10.0 mi South 11.5 mph - N/A   Overcast
7:15 PM 86.7 °F 91.7 °F 70.3 °F 58% 29.91 in 10.0 mi South 8.1 mph - N/A   Overcast
7:35 PM 85.3 °F 90.4 °F 70.7 °F 62% 29.91 in 10.0 mi SSE 8.1 mph - N/A   Mostly Cloudy
7:55 PM 84.2 °F 88.7 °F 70.3 °F 63% 29.92 in 10.0 mi SSE 5.8 mph - N/A   Scattered Clouds
8:15 PM 83.5 °F 87.2 °F 69.3 °F 62% 29.92 in 10.0 mi SSE 3.5 mph - N/A   Clear
8:35 PM 82.8 °F 86.2 °F 69.1 °F 63% 29.93 in 10.0 mi SSE 3.5 mph - N/A   Clear
8:55 PM 82.4 °F 85.8 °F 68.9 °F 64% 29.93 in 10.0 mi South 3.5 mph - N/A   Clear
9:15 PM 81.3 °F 84.5 °F 68.9 °F 66% 29.94 in 10.0 mi Calm Calm - N/A   Clear
9:35 PM 81.7 °F 84.9 °F 68.9 °F 65% 29.95 in 10.0 mi Calm Calm - N/A   Clear
9:55 PM 80.8 °F 83.8 °F 69.1 °F 67% 29.95 in 10.0 mi SSE 3.5 mph - N/A   Clear
10:15 PM 80.8 °F 83.8 °F 69.1 °F 67% 29.95 in 10.0 mi South 3.5 mph - N/A   Clear
10:35 PM 80.2 °F 83.1 °F 68.9 °F 68% 29.95 in 10.0 mi South 3.5 mph - N/A   Clear
10:55 PM 79.9 °F - 68.9 °F 69% 29.95 in 10.0 mi SSE 3.5 mph - N/A   Clear
11:15 PM 79.7 °F - 68.9 °F 69% 29.94 in 10.0 mi South 4.6 mph - N/A   Clear
11:35 PM 79.0 °F - 68.9 °F 71% 29.94 in 10.0 mi SSE 4.6 mph - N/A   Clear
11:55 PM 78.8 °F - 68.9 °F 72% 29.94 in 10.0 mi SSE 3.5 mph - N/A   Clear